FW8095 Weather Reports


Display with metric or nautical units.
time (UTC)temp
F
wind
direction
speed
MPH
gust
MPH
rain 1hr
in
rain 24hr
in
rain mn
in
humidity
%
barometer
mb
20260505113034 54 0 0.0 0.0 0.00 0.00 0.00 87 1014.4
20260505111534 54 0 0.0 0.0 0.00 0.00 0.00 85 1014.0
20260505101538 55 0 0.0 0.0 0.00 0.00 0.00 84 1013.7
20260505100034 56 0 0.0 0.0 0.00 0.00 0.00 83 1013.8
20260505094539 56 0 0.0 0.0 0.00 0.00 0.00 83 1013.9
20260505093040 56 0 0.0 0.0 0.00 0.00 0.00 82 1014.2
20260505091538 57 0 0.0 0.0 0.00 0.00 0.00 81 1014.2
20260505090034 57 0 0.0 0.0 0.00 0.00 0.00 79 1014.2
20260505084552 57 0 0.0 0.0 0.00 0.00 0.00 80 1014.4
20260505083057 57 0 0.0 0.0 0.00 0.00 0.00 80 1014.4
20260505081553 57 0 0.0 0.0 0.00 0.00 0.00 79 1014.4
20260505080047 58 0 0.0 0.0 0.00 0.00 0.00 79 1014.5
20260505074538 58 0 0.0 0.0 0.00 0.00 0.00 77 1014.5
20260505073048 58 0 0.0 0.0 0.00 0.00 0.00 76 1014.7
20260505071546 58 0 0.0 1.0 0.00 0.00 0.00 77 1014.5
20260505070044 58 0 0.0 0.0 0.00 0.00 0.00 75 1014.5
20260505064539 58 0 0.0 0.0 0.00 0.00 0.00 74 1014.7
20260505063040 59 0 0.0 0.0 0.00 0.00 0.00 73 1014.7
20260505061535 59 0 0.0 0.0 0.00 0.00 0.00 73 1014.6
20260505060053 59 0 0.0 0.0 0.00 0.00 0.00 72 1014.9
20260505054533 59 0 0.0 0.0 0.00 0.00 0.00 74 1015.0
20260505053040 60 0 0.0 0.0 0.00 0.00 0.00 73 1014.9
20260505051539 60 0 0.0 0.0 0.00 0.00 0.00 70 1014.7
20260505041549 62 0 0.0 0.0 0.00 0.00 0.00 67 1014.2
20260505040041 62 0 0.0 0.0 0.00 0.00 0.00 67 1014.4
20260505034537 63 0 0.0 0.0 0.00 0.00 0.00 66 1014.5
20260505033040 63 0 0.0 0.0 0.00 0.00 0.00 65 1014.5
20260505031540 63 0 0.0 1.0 0.00 0.00 0.00 65 1014.4
20260505030049 64 0 0.0 0.0 0.00 0.00 0.00 64 1014.5
20260505024542 64 0 0.0 0.0 0.00 0.00 0.00 63 1014.6
20260505023034 64 0 0.0 0.0 0.00 0.00 0.00 62 1014.5
20260505021532 65 0 0.0 0.0 0.00 0.00 0.00 60 1014.4
20260505020041 65 0 0.0 0.0 0.00 0.00 0.00 60 1014.4
20260505014559 66 0 0.0 0.0 0.00 0.00 0.00 59 1014.2
20260505013047 67 0 0.0 0.0 0.00 0.00 0.00 57 1014.1
20260505011540 68 0 0.0 0.0 0.00 0.00 0.00 58 1013.9
20260505010036 69 0 0.0 0.0 0.00 0.00 0.00 54 1013.9
20260505004547 70 227 0.0 0.0 0.00 0.00 0.00 52 1013.9
20260505003053 71 0 0.0 0.0 0.00 0.00 0.00 51 1013.9
20260505001538 71 0 0.0 1.0 0.00 0.00 0.00 50 1013.7
20260505000037 72 288 0.0 1.0 0.00 0.00 0.00 50 1013.8
20260504234543 73 0 0.0 2.0 0.00 0.00 0.00 52 1013.7
20260504233038 74 0 0.0 2.0 0.00 0.00 0.00 47 1013.9
20260504231537 74 0 0.0 2.0 0.00 0.00 0.00 46 1013.8
20260504230038 75 287 0.0 2.0 0.00 0.00 0.00 45 1013.9
20260504224538 75 254 1.0 5.0 0.00 0.00 0.00 43 1014.0
20260504223046 76 229 0.0 6.0 0.00 0.00 0.00 47 1014.0
20260504221537 76 0 0.0 4.0 0.00 0.00 0.00 45 1014.0
20260504220033 76 105 0.0 1.0 0.00 0.00 0.00 44 1014.1
20260504214531 76 314 0.0 3.0 0.00 0.00 0.00 45 1014.2
20260504213036 77 307 2.0 6.0 0.00 0.00 0.00 43 1014.2
20260504211551 77 266 0.0 5.0 0.00 0.00 0.00 42 1014.4
20260504210038 77 290 1.0 5.0 0.00 0.00 0.00 42 1014.5
20260504204533 77 0 0.0 6.0 0.00 0.00 0.00 42 1014.7
20260504203029 78 0 0.0 3.0 0.00 0.00 0.00 42 1014.6
20260504201538 78 90 1.0 4.0 0.00 0.00 0.00 43 1014.8
20260504200036 79 0 0.0 3.0 0.00 0.00 0.00 40 1014.9
20260504194548 81 298 1.0 4.0 0.00 0.00 0.00 38 1015.2
20260504193038 81 133 0.0 2.0 0.00 0.00 0.00 38 1015.4
20260504191542 80 0 0.0 4.0 0.00 0.00 0.00 42 1015.6
20260504190044 81 180 1.0 5.0 0.00 0.00 0.00 42 1015.7
20260504184545 80 311 1.0 4.0 0.00 0.00 0.00 41 1016.0
20260504183040 80 0 0.0 4.0 0.00 0.00 0.00 44 1016.2
20260504181538 81 280 1.0 4.0 0.00 0.00 0.00 43 1016.5
20260504180039 80 221 2.0 5.0 0.00 0.00 0.00 41 1016.5
20260504174540 80 302 1.0 3.0 0.00 0.00 0.00 43 1016.8
20260504173031 81 231 0.0 2.0 0.00 0.00 0.00 44 1016.8
20260504171540 80 213 1.0 5.0 0.00 0.00 0.00 45 1017.0